Port Angeles, WA

11:22 PM PST on February 06, 2016 (GMT -0800)
Fairchild International

Weather History for KCLM - January, 2013

Change the Weather History Date:

Monday, January 28, 2013

  Actual Average Record
Temperature  
Mean Temperature 42 °F -  
Max Temperature 48 °F 45 °F 56 °F (1976)
Min Temperature 39 °F 34 °F 11 °F (1969)
Degree Days  
Heating Degree Days 22    
Moisture  
Dew Point 36 °F    
Average Humidity 75    
Maximum Humidity 86    
Minimum Humidity 65    
Precipitation  
Precipitation 0.00 in - - ()
Sea Level Pressure  
Sea Level Pressure 30.03 in    
Wind  
Wind Speed 12 mph (West)    
Max Wind Speed 18 mph    
Max Gust Speed 30 mph    
Visibility 10 miles    
Events Rain    
Averages and records for this station are not official NWS values.
T = Trace of Precipitation, MM = Missing Value Source: NWS Daily Summary

Daily Weather History Graph

Daily Weather History Graph

Search for Another Location

Airport or City:

Trip Planner

Search our weather history database for the weather conditions in past years. The results will help you decide how hot, cold, wet, or windy it might be!

Date:

Astronomy

Jan. 28, 2013 Rise Set
Actual Time 7:46 AM PST 5:08 PM PST
Civil Twilight 7:12 AM PST 5:41 PM PST
Nautical Twilight 6:35 AM PST 6:19 PM PST
Astronomical Twilight 5:58 AM PST 6:56 PM PST
Moon 7:22 PM PST (1/28) 8:03 AM PST (1/28)
Length of Visible Light 10h 29m
Length of Day
9h 21m
Full, 97% of the Moon is Illuminated
Jan 28
Full
Feb 3
Last Quarter
Feb 9
New
Feb 17
First Quarter
Feb 25
Full

Hourly Weather History & Observations

Time (PST) Temp. Windchill Dew Point Humidity Pressure Visibility Wind Dir Wind Speed Gust Speed Precip Events Conditions
12:53 AM 42.1 °F 36.6 °F 33.1 °F 70% 30.00 in 10.0 mi West 9.2 mph - N/A   Overcast
1:53 AM 43.0 °F 36.4 °F 33.1 °F 68% 30.00 in 10.0 mi West 12.7 mph - N/A   Overcast
2:53 AM 44.1 °F 37.4 °F 33.1 °F 65% 30.01 in 10.0 mi West 13.8 mph - N/A   Overcast
3:53 AM 44.1 °F 36.8 °F 33.1 °F 65% 30.02 in 10.0 mi West 16.1 mph - N/A   Overcast
4:53 AM 44.1 °F 37.4 °F 33.1 °F 65% 30.02 in 10.0 mi West 13.8 mph 21.9 mph N/A   Overcast
5:53 AM 44.1 °F 37.4 °F 33.1 °F 65% 30.04 in 10.0 mi West 13.8 mph - N/A   Overcast
6:53 AM 44.1 °F 36.2 °F 33.1 °F 65% 30.04 in 10.0 mi West 18.4 mph 23.0 mph N/A   Overcast
7:53 AM 41.0 °F 34.3 °F 35.1 °F 79% 30.05 in 10.0 mi WSW 11.5 mph - 0.00 in   Overcast
8:53 AM 41.0 °F 33.9 °F 35.1 °F 79% 30.04 in 10.0 mi WSW 12.7 mph - 0.00 in   Overcast
9:53 AM 39.9 °F 32.5 °F 36.0 °F 86% 30.04 in 10.0 mi WSW 12.7 mph - 0.00 in Rain Light Rain
10:53 AM 41.0 °F 34.7 °F 36.0 °F 82% 30.04 in 10.0 mi WSW 10.4 mph - 0.00 in Rain Light Rain
11:53 AM 42.1 °F 36.1 °F 36.0 °F 79% 30.04 in 10.0 mi WSW 10.4 mph - 0.00 in Rain Light Rain
12:53 PM 42.1 °F 35.7 °F 37.0 °F 82% 30.01 in 10.0 mi West 11.5 mph - 0.00 in Rain Light Rain
1:53 PM 43.0 °F 37.2 °F 37.9 °F 82% 30.01 in 10.0 mi West 10.4 mph - 0.00 in Rain Light Rain
2:53 PM 43.0 °F 37.2 °F 37.9 °F 82% 30.01 in 10.0 mi West 10.4 mph - 0.00 in Rain Light Rain
3:53 PM 43.0 °F 38.2 °F 37.9 °F 82% 30.01 in 10.0 mi West 8.1 mph - 0.00 in Rain Light Rain
4:53 PM 43.0 °F 38.2 °F 37.9 °F 82% 30.00 in 10.0 mi West 8.1 mph - 0.00 in   Overcast
5:53 PM 43.0 °F 37.7 °F 37.9 °F 82% 30.02 in 10.0 mi WSW 9.2 mph - 0.00 in Rain Light Rain
6:53 PM 45.0 °F 38.9 °F 36.0 °F 71% 30.03 in 10.0 mi West 12.7 mph - 0.00 in   Overcast
7:53 PM 43.0 °F 36.8 °F 37.0 °F 80% 30.03 in 10.0 mi West 11.5 mph - N/A   Overcast
8:53 PM 45.0 °F 37.9 °F 36.0 °F 71% 30.04 in 10.0 mi West 16.1 mph 23.0 mph N/A   Overcast
9:53 PM 45.0 °F 37.9 °F 37.0 °F 74% 30.05 in 10.0 mi WNW 16.1 mph - 0.00 in Rain Light Rain
10:53 PM 46.9 °F - 36.0 °F 66% 30.05 in 10.0 mi West 15.0 mph - 0.00 in   Overcast
11:53 PM 48.0 °F - 37.0 °F 66% 30.08 in 10.0 mi West 16.1 mph 29.9 mph N/A   Overcast